[[{"header":{"parameterUnit":"m.s-1","parameterCategory":1,"la1":30.2991,"la2":30.254,"lo1":-89.0895,"lo2":-89.0444,"dy":0.0017,"dx":0.0017,"nx":28,"ny":28,"refTime":"2025-12-12T03:00:00:Z","depth":0,"parameterNumber":2,"parameterNumberName":"U-component_of_WINDS"},"data":[0,0,0,0,0,0,0,0,0,0,0,0,0,0,0,0,0,0,0,0,0,0,0,0,0,0,0,0,0,0,0,0,0,0,0,0,0,0,0,0,0,0,0,0,0,0,0,0,0,0,0,0,0,0,0,0,0,0,-1.8778,-1.8779,0,-1.882,-1.8821,-1.8821,-1.8812,-1.8811,-1.8811,-1.881,-1.8853,-1.8855,-1.8857,0,0,0,0,0,0,0,0,0,0,0,0,0,-1.869,-1.8692,-1.8778,-1.8779,-1.8779,-1.882,-1.8821,-1.8821,-1.8812,-1.8811,-1.881,-1.881,-1.8852,-1.8855,-1.8857,0,0,0,0,0,0,0,0,0,0,0,0,0,-1.873,-1.8692,-1.8778,-1.878,-1.878,-1.882,-1.8821,-1.8821,-1.8812,-1.8811,-1.881,-1.8809,-1.8852,-1.8854,-1.8857,-1.8898,0,0,-1.8866,-1.8867,0,0,0,0,0,0,0,0,-1.8728,-1.8733,-1.8779,-1.878,-1.878,-1.881,-1.8805,-1.8847,-1.8813,-1.88,-1.881,-1.8808,-1.884,-1.8843,-1.8854,-1.89,-1.8902,-1.8866,-1.8868,-1.8869,-1.887,0,0,0,0,0,0,0,-1.8725,-1.8731,-1.8795,-1.878,-1.8781,-1.8778,-1.8783,-1.8813,-1.8826,-1.8801,-1.8801,-1.8806,-1.884,-1.8851,-1.8855,-1.8902,-1.8866,-1.8868,-1.887,-1.8871,-1.8983,-1.8984,0,0,0,0,0,0,-1.8722,-1.8729,-1.8794,-1.8796,-1.8751,-1.8781,-1.8786,-1.8802,-1.8826,-1.8828,-1.8807,-1.8805,-1.8847,-1.8851,-1.8856,-1.8904,-1.8869,-1.8871,-1.8873,-1.8981,-1.8983,-1.8984,0,0,0,0,0,0,-1.872,-1.8727,-1.8792,-1.8763,-1.8771,-1.8784,-1.8801,-1.8803,-1.8814,-1.883,-1.8832,-1.8816,-1.8846,-1.8852,-1.8887,-1.8906,-1.8873,-1.8875,-1.898,-1.8982,-1.8984,-1.9001,0,0,0,0,0,0,-1.8717,-1.8727,-1.8743,-1.8763,-1.8772,-1.8822,-1.8803,-1.8805,-1.8819,-1.8818,-1.8839,-1.8841,-1.8846,-1.8883,-1.889,-1.8909,-1.8877,-1.8978,-1.8981,-1.8983,-1.8999,-1.9004,-1.9007,0,0,0,0,0,-1.8714,-1.8746,-1.8743,-1.8751,-1.8792,-1.8824,-1.8829,-1.8833,-1.8821,-1.8836,-1.8846,-1.8841,-1.8903,-1.8887,-1.8895,-1.8914,-1.8977,-1.898,-1.8983,-1.8997,-1.9003,-1.9007,0,0,0,0,0,0,-1.8728,-1.8749,-1.8746,-1.8786,-1.8803,-1.8822,-1.8842,-1.8839,-1.886,-1.8857,-1.8862,-1.8867,-1.8902,-1.8912,-1.8894,-1.8954,-1.8938,-1.8943,-1.8946,-1.8952,-1.8956,-1.8952,-1.888,0,0,0,0,0,-1.8736,-1.876,-1.8777,-1.881,-1.8819,-1.8829,-1.8843,-1.8844,-1.8862,-1.887,-1.8882,-1.89,-1.8923,-1.8938,-1.8961,-1.9001,-1.9005,-1.9018,-1.9023,-1.9026,-1.9029,-1.905,-1.9056,-1.8994,-1.8994,-1.8994,0,0,-1.8752,-1.8766,-1.8781,-1.8813,-1.8827,-1.8851,-1.8835,-1.8862,-1.8879,-1.8874,-1.8907,-1.8917,-1.8937,-1.8974,-1.8991,-1.8984,-1.9047,-1.903,-1.9032,-1.9034,-1.9054,-1.9059,-1.9065,-1.8996,-1.8995,-1.8995,0,0,-1.8793,-1.8807,-1.8836,-1.8849,-1.887,-1.8876,-1.8883,-1.8903,-1.8909,-1.8942,-1.8938,-1.8959,-1.9,-1.9013,-1.9026,-1.9072,-1.9067,-1.9079,-1.91,-1.912,-1.9125,-1.9129,-1.9144,-1.915,-1.9083,-1.9083,-1.9083,0,-1.8811,-1.8847,-1.8851,-1.8877,-1.8891,-1.8887,-1.8915,-1.8929,-1.8955,-1.8965,-1.8956,-1.9005,-1.9019,-1.9059,-1.907,-1.908,-1.9088,-1.9076,-1.9124,-1.9129,-1.9133,-1.9147,-1.9153,-1.9084,-1.9084,-1.9084,-1.9084,0,-1.8867,-1.8892,-1.8913,-1.8938,-1.8954,-1.8982,-1.8989,-1.9005,-1.9005,-1.9013,-1.9046,-1.9062,-1.9087,-1.9097,-1.9097,-1.9136,-1.9131,-1.9123,-1.9106,-1.914,-1.9153,-1.9159,-1.9086,-1.9085,-1.9085,-1.9085,0,0,-1.8918,-1.8944,-1.8952,-1.8962,-1.8984,-1.9004,-1.9031,-1.9055,-1.9068,-1.9086,-1.9108,-1.9142,-1.9135,-1.9149,-1.9151,-1.9169,-1.9203,-1.9159,-1.916,-1.9165,-1.9245,-1.9249,-1.9256,-1.92,-1.9201,-1.9202,-1.9243,0,-1.896,-1.9007,-1.9011,-1.9053,-1.9076,-1.9072,-1.9095,-1.9111,-1.9119,-1.9139,-1.9147,-1.917,-1.916,-1.9168,-1.9186,-1.9195,-1.9218,-1.9192,-1.922,-1.9221,-1.9213,-1.9263,-1.9268,-1.9306,-1.9248,-1.9249,-1.925,0,-1.9015,-1.9035,-1.9079,-1.9097,-1.9106,-1.9127,-1.9149,-1.9168,-1.9186,-1.919,-1.9205,-1.9205,-1.9232,-1.9215,-1.9252,-1.9234,-1.9246,-1.9252,-1.9254,-1.9255,-1.9236,-1.9264,-1.9318,-1.9323,-1.9258,-1.9258,-1.9257,0,-1.9046,-1.9084,-1.9114,-1.9124,-1.9146,-1.916,-1.917,-1.9186,-1.92,-1.9219,-1.9228,-1.925,-1.9262,-1.9279,-1.9285,-1.9272,-1.9321,-1.9305,-1.9324,-1.9324,-1.9334,-1.9333,-1.9388,-1.9344,-1.9344,-1.9343,-1.9343,0,-1.9092,-1.9119,-1.9128,-1.9147,-1.9177,-1.9181,-1.9211,-1.922,-1.9234,-1.9254,-1.9253,-1.9272,-1.9279,-1.9299,-1.9303,-1.9332,-1.9338,-1.9342,-1.9342,-1.9341,-1.934,-1.9347,-1.9344,-1.9345,-1.9345,-1.9344,-1.9344,0,-1.9131,-1.9138,-1.9172,-1.9189,-1.9194,-1.9215,-1.923,-1.9248,-1.9255,-1.9281,-1.9287,-1.9298,-1.9321,-1.9329,-1.9357,-1.936,-1.9394,-1.9393,-1.9388,-1.9387,-1.9405,-1.9403,-1.9466,-1.9474,-1.9426,-1.9426,-1.9427,0,-1.9159,-1.9179,-1.9199,-1.9212,-1.9222,-1.9244,-1.9257,-1.9263,-1.9277,-1.9298,-1.9313,-1.9336,-1.9355,-1.9392,-1.9403,-1.9424,-1.9423,-1.9444,-1.9426,-1.9424,-1.9421,-1.9419,-1.9421,-1.9446,-1.9447,-1.9447,-1.9448,0,-1.9207,-1.921,-1.9229,-1.925,-1.9267,-1.9284,-1.93,-1.9311,-1.9318,-1.9334,-1.9358,-1.9372,-1.9401,-1.9424,-1.9445,-1.9455,-1.9452,-1.9453,-1.9458,-1.9457,-1.9452,-1.9453,-1.9395,-1.9451,-1.9451,-1.9451,-1.9451,-1.945,-1.924,-1.9258,-1.9274,-1.9296,-1.9308,-1.9323,-1.9341,-1.935,-1.9369,-1.9392,-1.9395,-1.942,-1.9436,-1.9465,-1.9476,-1.9495,-1.9489,-1.9497,-1.9499,-1.95,-1.9501,-1.945,-1.9499,-1.9499,-1.9499,-1.9499,-1.9499,0,-1.9287,-1.9297,-1.9317,-1.934,-1.9357,-1.9353,-1.937,-1.9385,-1.9407,-1.9422,-1.944,-1.9467,-1.9488,-1.95,-1.9522,-1.9535,-1.9534,-1.954,-1.9539,-1.9541,-1.9506,-1.9498,-1.954,-1.954,-1.954,-1.954,-1.954,-1.954,-1.9314,-1.9342,-1.9347,-1.9381,-1.9391,-1.9415,-1.9426,-1.9439,-1.9451,-1.9481,-1.9499,-1.9506,-1.952,-1.9542,-1.9562,-1.9565,-1.9572,-1.9578,-1.9581,-1.9548,-1.9543,-1.9539,-1.9532,-1.958,-1.958,-1.9613,-1.9614,-1.9614]},{"header":{"parameterUnit":"m.s-1","parameterCategory":1,"la1":30.2991,"la2":30.254,"lo1":-89.0895,"lo2":-89.0444,"dy":0.0017,"dx":0.0017,"nx":28,"ny":28,"refTime":"2025-12-12T03:00:00:Z","depth":0,"parameterNumber":3,"parameterNumberName":"V-component_of_WINDS"},"data":[0,0,0,0,0,0,0,0,0,0,0,0,0,0,0,0,0,0,0,0,0,0,0,0,0,0,0,0,0,0,0,0,0,0,0,0,0,0,0,0,0,0,0,0,0,0,0,0,0,0,0,0,0,0,0,0,0,0,1.17,1.1701,0,1.1812,1.1813,1.1814,1.1833,1.1832,1.1831,1.183,1.1945,1.1949,1.1953,0,0,0,0,0,0,0,0,0,0,0,0,0,1.1502,1.1506,1.1699,1.1701,1.1702,1.1812,1.1813,1.1815,1.1833,1.1831,1.183,1.1829,1.1944,1.1948,1.1953,0,0,0,0,0,0,0,0,0,0,0,0,0,1.1599,1.1507,1.1699,1.1724,1.1728,1.1811,1.1813,1.1815,1.1833,1.1831,1.183,1.1829,1.1942,1.1948,1.1954,1.202,0,0,1.1972,1.1975,0,0,0,0,0,0,0,0,1.1593,1.1606,1.1719,1.1723,1.1727,1.1807,1.1786,1.1884,1.1833,1.1793,1.183,1.1828,1.19,1.191,1.1934,1.2026,1.2031,1.1973,1.1976,1.1979,1.1981,0,0,0,0,0,0,0,1.1587,1.1601,1.1744,1.1721,1.1726,1.1731,1.1743,1.1805,1.1854,1.1796,1.1798,1.1811,1.1902,1.1928,1.1937,1.2032,1.1972,1.1978,1.1981,1.1984,1.2187,1.2189,0,0,0,0,0,0,1.1575,1.1595,1.174,1.1747,1.1655,1.1735,1.1749,1.1783,1.1853,1.1862,1.1812,1.1811,1.1919,1.193,1.1941,1.2026,1.1979,1.1984,1.1988,1.2185,1.2188,1.2189,0,0,0,0,0,0,1.1571,1.1588,1.1736,1.1672,1.1691,1.174,1.1778,1.1786,1.1812,1.1865,1.1874,1.183,1.1918,1.1932,1.2001,1.203,1.1987,1.1993,1.2183,1.2186,1.2188,1.2194,0,0,0,0,0,0,1.1565,1.1586,1.1611,1.1672,1.1695,1.1794,1.178,1.1789,1.1822,1.1822,1.1884,1.1893,1.1918,1.1992,1.2007,1.2037,1.1997,1.2181,1.2184,1.2188,1.2191,1.2196,1.2201,0,0,0,0,0,1.1558,1.1608,1.1613,1.163,1.1727,1.1795,1.1808,1.1836,1.1824,1.1851,1.1885,1.1891,1.2024,1.1999,1.2016,1.2048,1.2179,1.2183,1.2187,1.2189,1.2195,1.2201,0,0,0,0,0,0,1.1549,1.1616,1.1622,1.1693,1.1739,1.1798,1.1832,1.1841,1.1891,1.1889,1.1922,1.1935,1.2003,1.2032,1.2003,1.2118,1.2101,1.2108,1.2096,1.2103,1.2107,1.21,1.2002,0,0,0,0,0,1.1556,1.1605,1.1661,1.1719,1.1741,1.1783,1.1813,1.1831,1.1879,1.1898,1.1938,1.1985,1.2037,1.2071,1.2122,1.2195,1.221,1.2226,1.2231,1.2234,1.2241,1.2284,1.2293,1.2203,1.2203,1.2203,0,0,1.1569,1.1612,1.1641,1.1718,1.1755,1.1807,1.1799,1.1853,1.1892,1.1907,1.1975,1.2005,1.2059,1.2131,1.2165,1.2158,1.2269,1.2239,1.2242,1.2247,1.2289,1.2298,1.2305,1.2206,1.2205,1.2205,0,0,1.1621,1.1657,1.1711,1.1748,1.1804,1.1832,1.1845,1.1903,1.1925,1.1993,1.2006,1.2053,1.2142,1.2181,1.2212,1.228,1.2288,1.2296,1.2321,1.2363,1.237,1.2376,1.2403,1.2412,1.2302,1.2302,1.2302,0,1.1631,1.1709,1.1737,1.1791,1.1825,1.1841,1.1896,1.1931,1.2001,1.2025,1.2016,1.213,1.2167,1.225,1.2266,1.229,1.2307,1.229,1.2366,1.2373,1.238,1.2406,1.2415,1.2303,1.2303,1.2303,1.2303,0,1.172,1.1773,1.181,1.1878,1.1916,1.197,1.2007,1.2042,1.2057,1.2085,1.2156,1.2202,1.2264,1.2284,1.2298,1.2369,1.2363,1.236,1.2344,1.2389,1.2414,1.2423,1.2304,1.2304,1.2303,1.2303,0,0,1.177,1.1853,1.1866,1.1898,1.1962,1.2004,1.206,1.212,1.2151,1.2199,1.2248,1.2323,1.2321,1.2357,1.2376,1.2412,1.2466,1.2405,1.2407,1.2417,1.255,1.2553,1.2564,1.2471,1.2473,1.2474,1.2546,0,1.1831,1.1931,1.1958,1.2043,1.2094,1.211,1.2159,1.2204,1.2232,1.228,1.2312,1.2366,1.2358,1.238,1.2416,1.2452,1.2494,1.2446,1.2518,1.252,1.2506,1.2577,1.2581,1.2646,1.2555,1.2557,1.2558,0,1.1916,1.1966,1.2056,1.2115,1.2138,1.2181,1.224,1.2285,1.2336,1.2355,1.2395,1.2411,1.2471,1.245,1.2534,1.2502,1.2532,1.2554,1.2558,1.2567,1.2544,1.2591,1.2667,1.2678,1.2573,1.2572,1.2571,0,1.1947,1.2037,1.2103,1.2129,1.2199,1.2229,1.226,1.231,1.2345,1.2396,1.242,1.2477,1.2509,1.2554,1.2585,1.2567,1.2667,1.2649,1.2686,1.2685,1.2708,1.2706,1.2793,1.2724,1.2723,1.2723,1.2723,0,1.2014,1.2069,1.2118,1.2159,1.2221,1.2252,1.2314,1.2345,1.2389,1.2438,1.2454,1.2499,1.2537,1.2587,1.2612,1.2679,1.2692,1.271,1.2717,1.271,1.2708,1.2732,1.273,1.2726,1.2725,1.2725,1.2724,0,1.206,1.2094,1.2168,1.2228,1.2244,1.2288,1.234,1.2381,1.241,1.2471,1.2487,1.2533,1.2593,1.2628,1.2704,1.272,1.2796,1.2799,1.2779,1.2782,1.2818,1.2815,1.2925,1.2942,1.2859,1.286,1.286,0,1.2101,1.2144,1.2209,1.2242,1.2273,1.2326,1.2363,1.2395,1.2432,1.2495,1.2529,1.259,1.2641,1.2737,1.2777,1.2836,1.2842,1.2877,1.2851,1.2844,1.2846,1.2844,1.285,1.2882,1.2882,1.2883,1.2883,0,1.2172,1.2188,1.2239,1.2297,1.234,1.2388,1.2435,1.2461,1.2501,1.2543,1.2605,1.2644,1.2722,1.2783,1.2846,1.2878,1.2889,1.2891,1.2903,1.2898,1.2886,1.2896,1.2793,1.2889,1.2888,1.2888,1.2888,1.2887,1.2219,1.2259,1.2311,1.2369,1.2407,1.2451,1.2493,1.2528,1.258,1.2646,1.2662,1.2728,1.278,1.2864,1.2898,1.2951,1.2945,1.2962,1.2967,1.2971,1.2974,1.2875,1.2962,1.2961,1.2961,1.2961,1.2961,0,1.2294,1.2328,1.238,1.2446,1.2492,1.2496,1.2549,1.2587,1.2645,1.2692,1.2742,1.2815,1.2875,1.292,1.2982,1.3015,1.3022,1.303,1.303,1.3037,1.2974,1.2958,1.3024,1.3024,1.3024,1.3024,1.3024,1.3024,1.2338,1.2406,1.2428,1.2516,1.255,1.2615,1.2645,1.2686,1.2724,1.2804,1.2854,1.2883,1.2931,1.2996,1.3052,1.3063,1.3087,1.3095,1.3108,1.3048,1.3042,1.3035,1.3021,1.3099,1.3099,1.3168,1.3168,1.3169]}]]